Temp
12 11 11 11 11 11 11 12 11 11 11 11 10 10 10 10 10 10 10 9 9 9 9 9 9 9 9 8 8 8 8 8 8 8 8 8 8 7 7 7 7 7 7
11 11 11 11 11 11 11 11 11 11 11 11 10 10 10 10 10 9 9 9 9 9 9 9 9 9 8 8 8 8 8 8 8 8 8 8 8 7 7 7 7 7 7
11 11 11 11 11 11 11 11 11 11 11 10 10 10 10 10 10 9 9 9 9 9 9 9 9 9 9 8 8 8 8 8 8 8 8 8 8 7 7 7 7 7 7
11 11 11 11 11 11 11 11 10 10 10 10 10 10 10 10 9 9 9 9 9 9 9 9 8 8 8 8 8 8 8 8 8 8 7 7 8 7 7 7 7 7 7
11 11 11 11 10 11 10 10 10 10 10 10 10 9 9 9 9 9 9 9 9 8 8 8 8 8 8 8 8 7 7 7 7 8 8 7 7 7 7 7 7 7 7
12 11 11 11 10 10 10 10 10 10 9 9 9 9 9 9 8 8 8 8 8 8 8 8 8 8 8 7 7 7 7 7 7 7 7 7 8 6 7 7 7 7 7
12 11 11 10 10 10 10 10 10 10 10 9 9 9 9 9 8 8 8 8 8 8 8 8 8 8 8 7 7 7 7 6 6 7 7 7 7 6 6 6 7 7 7
12 12 11 11 10 10 10 10 10 10 10 9 9 9 9 9 8 8 8 8 8 8 8 8 8 8 7 7 7 7 6 6 6 6 7 7 7 6 6 6 6 6 6
12 12 11 11 10 10 10 10 10 10 9 9 9 9 9 9 9 8 8 8 8 8 8 8 7 7 7 7 7 6 6 6 6 6 6 7 7 6 6 6 6 6 6
11 11 11 10 10 10 10 10 10 10 9 9 9 9 9 9 9 8 8 8 8 7 7 7 7 7 7 7 7 6 6 6 6 5 5 6 7 6 6 6 6 6 6
10 10 10 10 10 10 10 10 10 9 9 9 9 9 9 8 8 8 8 8 7 7 7 7 6 6 7 7 7 6 7 6 6 5 5 5 6 6 6 6 6 6 6
8 8 10 10 10 10 10 10 9 9 9 9 8 8 8 8 8 7 7 7 7 6 6 6 7 7 6 6 6 6 7 6 6 6 5 5 5 5 5 5 5 5 6
6 6 7 8 9 9 9 9 8 8 8 7 7 7 7 7 7 7 7 7 7 7 6 6 6 6 6 6 6 6 6 6 6 6 5 5 5 5 5 5 5 5 5
9 5 8 8 8 8 9 9 8 7 7 7 7 7 7 6 6 7 7 6 6 6 6 6 5 5 6 5 6 6 6 6 6 6 5 5 5 4 4 5 4 5 5
8 8 8 7 7 8 8 8 7 6 6 6 6 6 6 5 5 6 6 6 6 6 6 5 5 5 5 5 5 5 6 6 6 6 6 5 4 4 4 5 4 4 4
8 8 8 7 6 7 7 7 6 5 5 5 4 6 6 6 4 5 6 6 6 5 5 5 5 5 5 5 5 5 5 5 5 6 5 5 5 5 4 4 4 4 5
8 8 7 7 7 8 7 7 6 6 6 5 5 5 5 5 5 5 6 6 6 5 5 6 6 5 5 5 4 5 5 5 5 5 5 5 5 5 5 5 4 4 4
8 8 7 7 7 7 7 7 7 6 6 5 5 5 5 5 4 4 5 5 5 5 5 5 5 5 5 4 4 4 5 5 5 5 6 5 5 5 6 5 5 5 5
8 8 8 8 7 7 6 6 6 6 5 5 4 4 4 4 4 4 4 4 4 4 4 4 4 4 4 4 4 4 4 5 5 5 5 5 5 6 6 6 6 6 5
8 7 7 7 6 6 6 6 5 4 4 4 4 3 3 3 3 3 3 2 2 1 3 2 2 3 3 3 3 4 4 4 4 4 4 4 4 5 6 6 6 6 5
7 6 6 6 6 6 5 5 4 4 3 2 2 2 2 2 2 1 1 1 2 2 2 2 1 1 1 1 2 3 2 3 3 3 3 4 4 4 5 6 6 6 6
7 7 6 6 5 5 4 4 3 3 3 2 1 1 1 1 0 1 1 0 0 1 1 0 0 0 0 -0 0 2 2 2 2 2 2 3 3 4 4 4 5 5 5
7 6 6 6 5 4 3 3 3 2 1 0 0 -0 -0 -0 -0 -0 -1 -1 -1 -0 -0 -0 -0 -1 -1 -0 -1 -1 -1 0 1 1 1 2 3 2 2 1 2 3 4
6 6 6 5 5 4 3 3 2 2 1 -0 -1 -1 -2 -2 -2 -1 -1 -1 -1 -1 -1 -1 -1 -2 -2 -2 -3 -3 -3 -2 -1 0 -1 -1 -0 0 0 -0 -0 1 3
6 5 5 4 3 3 2 2 1 1 0 -1 -2 -2 -2 -2 -2 -3 -2 -2 -1 -2 -3 -3 -3 -3 -3 -3 -3 -4 -4 -3 -2 -2 -1 -0 -1 -1 -1 -1 -0 0 0
4 4 4 3 3 2 1 1 0 -1 -1 -2 -2 -3 -3 -3 -3 -3 -3 -3 -3 -3 -3 -4 -4 -4 -3 -3 -3 -3 -3 -3 -3 -3 -2 -2 -1 -1 -2 -1 -1 -1 -1
Height
3191 3192 3194 3194 3194 3195 3195 3197 3198 3200 3201 3202 3203 3204 3205 3206 3206 3207 3207 3207 3206 3206 3206 3206 3205 3204 3203 3202 3202 3202 3202 3201 3200 3200 3200 3199 3200 3199 3198 3197 3195 3194 3194
3193 3194 3195 3195 3196 3196 3196 3196 3197 3199 3201 3202 3203 3204 3205 3206 3207 3207 3207 3207 3207 3207 3207 3206 3205 3205 3204 3204 3204 3203 3203 3203 3203 3203 3202 3201 3199 3199 3198 3197 3197 3195 3194
3193 3194 3195 3195 3196 3197 3197 3197 3197 3198 3200 3202 3203 3203 3204 3205 3205 3206 3206 3206 3206 3205 3205 3205 3205 3204 3203 3203 3204 3204 3203 3203 3203 3203 3202 3202 3201 3200 3199 3198 3196 3195 3195
3192 3194 3194 3195 3194 3195 3197 3197 3197 3198 3198 3199 3202 3203 3204 3205 3205 3205 3205 3205 3205 3205 3205 3204 3204 3204 3204 3204 3204 3204 3203 3203 3203 3202 3202 3202 3201 3200 3200 3200 3199 3198 3197
3192 3193 3195 3196 3195 3194 3194 3197 3198 3197 3197 3197 3199 3202 3203 3204 3204 3205 3205 3205 3205 3205 3205 3204 3204 3204 3204 3204 3204 3204 3204 3203 3203 3203 3204 3203 3201 3200 3201 3200 3200 3199 3198
3193 3192 3196 3197 3197 3197 3195 3194 3195 3196 3196 3196 3196 3198 3200 3202 3202 3202 3202 3203 3203 3204 3204 3204 3204 3203 3203 3203 3202 3202 3202 3201 3201 3201 3201 3202 3199 3199 3200 3199 3199 3198 3198
3193 3192 3193 3196 3198 3198 3198 3197 3197 3197 3197 3197 3197 3197 3198 3199 3200 3202 3202 3202 3203 3203 3203 3203 3202 3202 3202 3202 3202 3201 3200 3199 3199 3198 3198 3198 3197 3198 3199 3198 3198 3197 3197
3194 3193 3193 3195 3196 3197 3198 3197 3197 3196 3197 3197 3197 3198 3198 3198 3200 3200 3200 3201 3200 3201 3201 3201 3201 3201 3201 3200 3200 3200 3199 3198 3197 3197 3197 3197 3195 3196 3197 3197 3197 3196 3196
3194 3193 3195 3196 3196 3196 3198 3198 3197 3198 3197 3197 3196 3196 3196 3195 3196 3197 3197 3197 3197 3198 3198 3198 3198 3198 3198 3198 3198 3198 3198 3197 3196 3195 3195 3196 3195 3194 3195 3195 3195 3196 3195
3191 3191 3192 3195 3196 3195 3195 3195 3197 3197 3197 3196 3195 3195 3194 3194 3193 3194 3195 3194 3194 3194 3194 3194 3194 3194 3193 3193 3194 3194 3194 3194 3194 3193 3192 3191 3191 3193 3193 3193 3193 3194 3194
3188 3190 3190 3190 3193 3193 3192 3191 3194 3194 3193 3193 3192 3192 3192 3191 3190 3190 3190 3191 3190 3190 3189 3189 3189 3189 3189 3189 3189 3189 3188 3189 3189 3189 3189 3187 3188 3189 3190 3190 3190 3191 3191
3181 3184 3187 3189 3189 3189 3189 3188 3189 3191 3191 3191 3189 3187 3187 3187 3186 3186 3185 3186 3185 3185 3184 3184 3184 3184 3184 3183 3183 3183 3183 3183 3182 3184 3184 3183 3184 3185 3186 3186 3187 3188 3188
3176 3172 3189 3188 3188 3189 3188 3186 3189 3188 3188 3187 3184 3183 3183 3183 3182 3179 3179 3179 3180 3181 3180 3180 3180 3179 3178 3178 3177 3178 3178 3177 3177 3177 3178 3177 3176 3177 3177 3178 3180 3182 3184
3174 3184 3191 3190 3189 3186 3185 3184 3185 3185 3185 3184 3181 3179 3178 3178 3178 3175 3174 3172 3173 3175 3174 3173 3173 3173 3172 3172 3172 3172 3171 3172 3171 3170 3171 3170 3171 3166 3162 3170 3174 3177 3178
3179 3181 3187 3187 3185 3183 3182 3182 3184 3184 3181 3179 3177 3175 3175 3173 3173 3172 3170 3170 3169 3170 3170 3169 3168 3168 3166 3165 3164 3164 3165 3164 3163 3161 3162 3162 3161 3159 3150 3160 3167 3169 3171
3178 3181 3183 3180 3182 3183 3181 3181 3180 3180 3177 3175 3174 3172 3171 3170 3169 3168 3167 3167 3165 3164 3164 3164 3162 3160 3160 3159 3159 3158 3157 3157 3157 3157 3157 3158 3157 3158 3158 3159 3161 3162 3164
3177 3178 3176 3176 3177 3174 3173 3176 3177 3176 3173 3171 3170 3169 3166 3165 3163 3162 3160 3160 3159 3158 3157 3156 3155 3154 3151 3150 3150 3150 3150 3150 3150 3150 3150 3150 3151 3151 3152 3153 3154 3156 3157
3172 3172 3172 3173 3174 3174 3171 3170 3169 3168 3165 3165 3164 3162 3160 3159 3157 3156 3153 3152 3151 3150 3149 3149 3146 3145 3144 3142 3142 3142 3143 3143 3143 3141 3141 3143 3144 3144 3144 3144 3145 3146 3148
3168 3168 3168 3169 3168 3167 3165 3164 3163 3163 3161 3158 3156 3154 3152 3150 3149 3146 3145 3146 3145 3144 3141 3139 3138 3136 3134 3133 3134 3134 3134 3135 3134 3133 3133 3132 3132 3134 3134 3134 3135 3136 3137
3165 3164 3163 3163 3162 3161 3160 3158 3156 3155 3153 3151 3149 3146 3143 3141 3139 3139 3137 3135 3132 3132 3131 3130 3129 3127 3124 3122 3124 3124 3124 3125 3122 3124 3124 3124 3123 3122 3122 3124 3125 3124 3125
3163 3162 3162 3160 3159 3156 3154 3152 3150 3148 3146 3144 3141 3139 3137 3134 3133 3132 3130 3127 3124 3122 3119 3116 3115 3115 3115 3112 3112 3112 3113 3113 3112 3109 3113 3110 3110 3112 3111 3110 3112 3113 3113
3162 3161 3160 3158 3155 3152 3149 3146 3144 3142 3140 3138 3136 3133 3131 3129 3126 3124 3122 3119 3115 3112 3108 3106 3104 3103 3102 3099 3098 3100 3101 3102 3101 3098 3100 3098 3099 3099 3100 3099 3099 3101 3102
3161 3160 3159 3155 3151 3148 3145 3142 3139 3136 3133 3131 3129 3127 3125 3123 3121 3119 3117 3114 3110 3106 3101 3098 3095 3092 3090 3091 3088 3088 3086 3087 3087 3089 3088 3090 3090 3089 3089 3087 3088 3089 3090
3159 3156 3154 3150 3147 3143 3141 3137 3133 3130 3127 3125 3123 3122 3120 3117 3114 3113 3111 3108 3103 3099 3096 3092 3089 3085 3083 3083 3082 3077 3076 3076 3076 3079 3080 3077 3077 3077 3079 3079 3079 3080 3081
3155 3152 3147 3145 3143 3139 3135 3132 3128 3125 3124 3121 3119 3116 3114 3111 3109 3106 3104 3101 3096 3091 3088 3086 3083 3081 3079 3077 3075 3073 3073 3071 3069 3064 3066 3069 3068 3068 3068 3070 3072 3072 3074
3147 3145 3143 3141 3138 3136 3132 3128 3125 3122 3119 3117 3114 3111 3107 3104 3102 3098 3095 3092 3089 3085 3082 3079 3077 3075 3073 3070 3068 3066 3064 3063 3063 3059 3055 3056 3058 3062 3058 3059 3061 3063 3064
Wind_Speed
8 9 7 7 9 10 12 12 12 12 12 11 10 10 10 9 8 7 7 6 5 5 5 5 6 7 7 8 8 8 8 8 7 6 7 9 9 10 12 13 11 11 10
5 9 7 6 8 9 10 12 12 11 11 10 9 8 8 7 6 5 4 3 3 3 3 4 5 5 6 6 5 5 4 4 4 4 3 5 8 8 9 11 11 12 10
5 9 9 6 9 8 9 9 10 10 8 7 6 6 5 4 4 2 2 1 2 2 3 3 4 4 4 4 4 4 4 3 2 2 2 2 5 7 7 8 10 10 10
6 9 9 7 9 9 8 8 9 9 9 7 6 5 3 2 1 1 1 1 2 3 3 3 4 4 4 4 3 4 4 5 4 2 2 2 2 6 5 6 7 8 8
4 8 7 7 9 10 9 9 8 9 8 7 6 5 3 2 1 1 2 2 3 3 3 3 4 3 3 3 3 3 5 6 6 6 3 3 4 4 3 3 4 5 6
1 5 7 7 8 8 9 10 10 9 8 7 6 5 3 3 2 2 2 2 3 4 4 5 5 5 5 4 2 3 5 5 6 6 6 4 1 3 2 2 2 3 3
1 4 5 6 7 6 7 7 6 6 5 5 4 3 3 3 3 4 5 5 6 6 6 6 7 7 7 7 6 5 5 6 7 8 7 7 1 1 1 2 1 1 1
1 4 5 7 8 7 8 7 6 6 5 4 4 5 5 6 7 7 8 8 9 10 10 10 10 10 10 10 9 8 8 9 9 9 10 10 3 2 3 2 2 2 2
1 4 7 8 8 8 8 7 7 7 7 7 7 8 9 9 9 11 11 12 13 13 13 13 13 13 13 14 13 12 11 10 11 12 14 10 6 5 6 5 4 4 4
7 7 8 10 10 10 9 10 11 11 12 12 12 12 13 13 14 15 16 16 17 17 17 17 17 16 16 16 16 16 15 13 13 14 16 16 13 9 10 8 7 7 7
13 11 11 12 12 13 12 13 14 15 15 15 15 15 16 17 18 18 20 20 21 21 21 21 19 19 19 18 17 18 19 17 18 18 18 21 19 16 14 12 11 10 9
10 11 14 14 14 13 13 13 15 15 16 16 16 17 18 19 20 21 22 22 22 23 23 22 24 22 20 20 20 20 20 20 22 20 21 23 22 22 17 15 15 14 12
23 15 7 10 13 13 13 13 14 16 17 17 18 20 20 22 23 24 24 25 24 23 24 23 21 21 22 21 20 22 25 19 18 21 23 23 26 24 23 20 19 18 16
22 19 11 11 17 19 18 18 18 19 19 21 22 23 23 24 25 25 27 28 29 28 28 25 28 24 27 26 28 26 26 23 21 23 26 26 32 26 32 18 17 20 20
22 9 11 10 17 18 21 25 28 27 25 25 23 24 26 26 30 29 29 27 31 33 32 30 30 32 32 29 30 30 29 31 29 27 28 26 29 30 24 18 21 23 25
21 17 15 13 15 17 19 21 21 23 24 26 25 26 31 31 31 35 32 31 33 36 36 34 33 36 37 37 35 33 30 27 28 28 29 28 28 27 27 27 24 24 26
25 18 11 11 14 17 16 17 18 22 22 19 24 28 26 27 26 28 28 32 35 37 39 40 40 38 40 38 38 36 33 29 28 29 30 30 29 29 29 29 29 31 28
21 16 13 13 16 17 16 20 24 33 35 38 38 36 37 34 35 35 31 30 32 34 36 38 39 38 39 39 37 33 33 33 32 31 29 28 28 29 31 34 35 36 35
14 15 18 18 20 23 23 25 27 31 31 28 29 31 32 36 39 41 43 43 41 38 34 34 35 37 35 34 38 36 34 35 33 30 28 29 31 32 33 35 37 39 40
13 15 18 21 21 21 22 24 25 25 27 27 27 29 32 34 36 40 41 43 44 44 43 41 41 40 40 40 43 44 36 35 35 35 34 33 34 37 40 38 36 39 40
10 14 18 22 26 27 25 24 24 25 25 24 24 27 28 29 29 28 32 38 40 39 40 45 51 57 57 52 48 45 40 43 42 44 43 46 48 47 43 43 40 39 42
13 18 23 27 30 30 28 27 27 26 24 24 25 26 27 28 30 34 38 38 37 38 37 38 42 47 47 50 50 54 56 51 56 57 51 46 45 48 41 40 38 38 40
18 22 25 28 32 29 27 28 29 28 27 26 25 26 29 30 33 36 39 37 37 35 34 35 35 35 38 46 49 51 50 44 43 37 42 41 38 34 30 29 33 35 37
19 23 28 33 33 31 30 30 30 30 30 27 27 28 30 32 38 41 39 37 35 34 33 31 31 27 25 23 26 31 30 35 34 34 24 28 32 34 32 32 33 36 37
26 29 34 34 30 33 32 30 29 29 29 29 29 30 32 36 38 39 35 33 33 33 33 29 28 28 31 30 31 29 27 31 31 34 31 26 31 33 35 34 33 33 32
33 36 37 37 36 33 29 27 26 26 27 29 31 32 34 36 37 38 34 30 27 27 28 30 31 32 33 32 31 31 33 33 32 35 39 38 36 31 34 34 30 29 30
Wind_Direction
151 171 174 162 154 154 149 143 138 133 128 124 120 116 112 110 108 104 97 88 83 74 60 44 42 37 38 46 49 47 43 50 55 61 65 71 57 56 52 50 55 63 68
184 171 179 179 176 166 161 154 151 147 141 136 133 130 130 126 119 108 100 91 64 44 34 28 30 27 25 24 25 33 33 37 37 32 55 81 84 65 63 62 55 65 61
178 185 177 195 195 185 178 168 159 153 145 144 141 137 135 132 124 111 88 51 19 16 10 8 11 14 9 12 2 353 347 348 1 20 355 31 81 71 56 60 62 61 68
183 190 178 200 196 194 190 182 172 164 158 157 155 151 151 151 146 143 89 356 347 347 348 350 355 357 353 351 345 328 312 304 311 317 318 233 62 80 61 51 54 57 63
197 197 205 212 193 189 191 191 186 180 176 175 172 174 176 182 193 256 307 319 311 310 313 321 319 324 327 333 328 311 296 305 306 313 306 222 126 64 77 73 61 63 60
165 201 228 215 205 213 199 188 188 188 178 178 177 182 195 210 220 249 263 276 294 306 312 314 312 316 312 307 289 276 283 288 292 298 307 257 6 70 350 49 56 56 62
33 191 214 219 229 225 214 210 207 209 208 206 214 220 232 256 281 294 301 304 302 298 297 299 302 305 306 306 301 291 281 280 284 295 297 312 240 110 320 345 350 1 74
39 241 211 218 228 226 217 214 219 223 238 252 261 271 282 296 300 299 298 298 296 299 301 301 300 299 299 299 297 291 286 287 289 291 294 311 277 234 256 256 279 272 238
280 277 249 236 233 242 251 257 258 262 261 260 263 265 271 274 275 277 282 284 285 286 287 290 291 293 294 294 294 294 290 286 286 290 294 295 287 239 250 255 257 262 259
236 245 241 238 241 246 257 260 264 270 273 275 273 273 274 274 275 277 279 280 282 285 286 282 279 277 275 278 282 283 282 278 275 274 281 282 284 258 242 245 252 258 258
230 226 226 227 237 243 249 258 262 262 263 266 275 282 282 281 279 279 279 279 280 282 281 282 281 281 279 280 279 279 277 275 267 265 266 273 276 275 257 253 248 251 256
210 204 222 232 234 244 251 252 256 263 269 275 278 274 275 275 275 276 278 279 278 278 277 284 282 282 278 277 275 278 275 270 266 263 261 262 265 265 257 251 259 261 260
266 138 251 265 275 275 272 273 272 273 271 272 269 272 273 273 276 276 275 277 272 275 280 279 281 283 274 278 279 283 281 275 274 273 264 255 252 248 248 245 250 253 257
345 11 245 273 279 293 288 284 284 281 278 276 281 282 277 278 276 277 277 280 284 283 279 276 278 280 276 276 279 284 277 271 268 268 264 262 269 248 238 248 258 263 260
320 347 321 272 270 271 277 278 279 277 286 290 291 293 291 289 286 278 276 279 291 284 276 275 274 271 271 271 275 278 275 269 271 269 267 270 266 283 291 261 264 257 256
310 320 283 274 272 281 292 288 285 289 298 293 289 296 293 291 290 282 285 280 273 274 277 277 276 276 274 275 276 275 269 263 265 266 264 264 267 266 266 257 253 249 258
301 303 293 272 262 251 241 261 278 294 295 319 311 303 298 298 302 296 294 291 286 282 280 279 278 274 273 274 276 276 265 258 258 262 266 268 266 268 264 259 254 253 254
291 299 298 280 278 278 285 286 285 286 288 279 305 303 298 302 305 303 298 290 288 286 283 280 275 272 270 273 272 267 263 266 270 269 269 271 273 270 267 262 258 256 255
313 320 318 307 302 302 303 299 300 297 282 286 281 287 288 286 294 295 288 291 289 285 280 280 278 274 267 267 271 266 267 267 268 266 268 273 277 275 273 268 264 259 253
323 327 328 334 336 329 322 316 312 302 290 286 288 289 285 279 278 284 288 288 289 282 269 272 276 274 271 270 264 261 261 265 266 270 267 272 280 281 279 276 268 262 256
329 343 347 343 342 333 326 323 316 309 305 302 296 287 285 286 286 286 292 296 296 297 286 278 274 268 264 269 268 264 266 265 268 273 282 278 279 281 279 276 270 260 254
325 327 333 331 337 335 330 323 317 313 307 301 297 297 296 291 285 295 303 305 309 302 297 287 283 282 279 280 278 273 268 266 261 274 281 286 282 277 270 272 267 262 257
318 318 327 332 335 333 329 325 322 319 315 311 306 301 300 294 293 296 307 311 308 310 305 299 296 293 282 277 280 281 277 274 273 265 265 264 268 268 261 258 258 259 258
318 322 324 332 333 329 330 326 322 318 313 310 305 303 301 300 296 299 310 313 312 304 307 302 297 296 289 288 293 299 296 278 274 261 261 268 268 268 262 254 255 260 262
322 326 332 332 334 331 331 327 322 315 310 308 304 302 299 298 303 308 313 313 312 308 304 303 303 302 300 300 299 284 283 288 286 284 275 259 263 263 263 261 261 259 259
332 333 333 332 332 333 331 327 321 312 307 303 299 297 298 301 308 310 313 312 312 310 306 299 294 294 294 293 292 290 287 281 276 275 277 275 269 252 260 264 261 257 249